This is the latest recevied weather packets stored in our database for station/object 9A7DI-13. If no packets are shown the sender has not sent any weather packets the latest 10 day(s).
| Time | Temp. | Humidity | Pressure | Rain* | Wind** | Luminosity | Snow |
|---|---|---|---|---|---|---|---|
| 1787967413 | 21.11° C | 80% | 1020.5 hPa | - | - | - | - |
| 1787966813 | 21.11° C | 82% | 1020.7 hPa | - | - | - | - |
| 1787966213 | 20.56° C | 85% | 1020.8 hPa | - | - | - | - |
| 1787965613 | 20.56° C | 82% | 1020.8 hPa | - | - | - | - |
| 1787965013 | 21.11° C | 82% | 1020.8 hPa | - | - | - | - |
| 1787964413 | 21.11° C | 82% | 1021 hPa | - | - | - | - |
| 1787963813 | 21.11° C | 81% | 1021.2 hPa | - | - | - | - |
| 1787963213 | 21.11° C | 81% | 1021.2 hPa | - | - | - | - |
| 1787962613 | 21.11° C | 81% | 1021.2 hPa | - | - | - | - |
| 1787962013 | 21.11° C | 80% | 1021 hPa | - | - | - | - |
| 1787961413 | 21.67° C | 79% | 1021.1 hPa | - | - | - | - |
| 1787960813 | 21.67° C | 79% | 1021.1 hPa | - | - | - | - |
| 1787960213 | 21.67° C | 79% | 1021.2 hPa | - | - | - | - |
| 1787959613 | 21.67° C | 78% | 1021 hPa | - | - | - | - |
| 1787959013 | 22.22° C | 78% | 1021.1 hPa | - | - | - | - |
| 1787958413 | 22.22° C | 76% | 1021 hPa | - | - | - | - |
| 1787957813 | 22.22° C | 76% | 1020.8 hPa | - | - | - | - |
| 1787957213 | 22.78° C | 73% | 1020.7 hPa | - | - | - | - |
| 1787956613 | 23.33° C | 70% | 1020.5 hPa | - | - | - | - |
| 1787956013 | 23.89° C | 69% | 1020.5 hPa | - | - | - | - |
| 1787955413 | 23.89° C | 68% | 1020.6 hPa | - | - | - | - |
| 1787954813 | 23.89° C | 69% | 1020.5 hPa | - | - | - | - |
| 1787954213 | 23.89° C | 70% | 1020.4 hPa | - | - | - | - |
| 1787953613 | 23.89° C | 72% | 1020.4 hPa | - | - | - | - |
| 1787953014 | 24.44° C | 69% | 1020.5 hPa | - | - | - | - |
* Rain since midnight (hover to see other rain measurements)
** Current wind speed in m/s (hover to see current wind gust speed)